YAOGAN 22

Last updated on Wed Apr 24 2024 00:02:24 GMT+0000 (Coordinated Universal Time)

1 40275U 14063A 24114.32463604 -.00000010 00000+0 94831-4 0 9992 2 40275 100.6528 245.8620 0006716 154.6209 205.5233 13.15478472456610
UTC large
Height (km)
Speed (km/s)
/
Latitude / Longitude
Inclination (degrees)
Orbital Period (minutes)
Azimuth
Elevation
Range (km)
Doppler Factor

Next 0 passes for location: London (51.5072 / 0.1276)

Sorry there are no passes over London.